Flag for Germany Weather past 2 weeks in Königswinter, North Rhine-Westphalia, Germany

Now
54 °F

Clear.


Feels Like: 54 °F
Forecast: 55 / 77 °F
Wind: 2 mph from East

Location: Bonn-Hangelar

Current Time: Sep 3, 2014 at 3:40:11 AM

Latest Report: Sep 3, 2014 at 3:00 AM


Visibility: 0 mi

Pressure: 30.22 "Hg

Humidity: 97%

Dew point: 53 °F

Location of KönigswinterLocation

Historic Weather in Königswinter — Graph

°F

Königswinter temperature yesterday

Maximum temperature yesterday: 68 °F (at 3:00 PM)
Minimum temperature yesterday: 54 °F (at 6:00 AM)
Average temperature yesterday: 61 °F

Past Weeks' High & Low Weather Summary

 TemperatureHumidityPressure
High70 °F (Aug 28, 6:00 PM)99% (Aug 26, 4:00 AM)30.23 "Hg (Aug 26, 4:00 AM)
Low47 °F (Aug 21, 6:00 AM)51% (Aug 22, 4:00 PM)29.61 "Hg (Aug 26, 6:00 AM)
Average57 °F82%29.99 "Hg
* Reported Aug 19 2:00 AM — Sep 3 2:00 AM, Königswinter, Weather by CustomWeather, © 2014

Note: Actual official high and low records may vary slightly from our data, if they occured in-between our weather recording intervals... More about our weather records

Advertising

Königswinter weather history for previous 24 hours

 ConditionsComfort  
Time TempWeatherWind HumidityBarometerVisibility
2:00 AM
Sep 3
55 °FFog.2 mph97%30.22 "Hg1 mi
1:00 AM56 °FFog.2 mph95%30.22 "Hg2 mi
12:00 AM58 °FFog.3 mph94%30.23 "Hg2 mi
11:00 PM
Sep 2
60 °FFog.3 mph90%30.23 "Hg3 mi
10:00 PM61 °FFog.3 mph88%30.22 "Hg3 mi
9:00 PM62 °FOvercast.3 mph84%30.21 "Hg5 mi
8:00 PM63 °FOvercast.3 mph81%30.19 "Hg6 mi
7:00 PM65 °FOvercast.3 mph73%30.18 "Hg22 mi
6:00 PM67 °FOvercast.3 mph62%30.17 "Hg25 mi
5:00 PM67 °FPartly sunny.5 mph60%30.17 "Hg25 mi
4:00 PM67 °FPassing clouds.3 mph55%30.18 "Hg19 mi
3:00 PM68 °FPassing clouds.2 mph56%30.18 "Hg19 mi
2:00 PM67 °FPassing clouds.5 mph61%30.18 "Hg19 mi
1:00 PM66 °FPassing clouds.5 mph58%30.19 "Hg16 mi
12:00 PM64 °FPassing clouds.3 mph64%30.19 "Hg16 mi
11:00 AM64 °FPassing clouds.2 mph63%30.19 "Hg11 mi
10:00 AM62 °FPassing clouds.2 mph74%30.19 "Hg7 mi
9:00 AM61 °FScattered clouds.1 mph71%30.18 "Hg16 mi
8:00 AM58 °FPartly sunny.1 mph84%30.17 "Hg16 mi
7:00 AM55 °FPartly sunny.1 mph85%30.17 "Hg12 mi
6:00 AM54 °FPassing clouds.1 mph87%30.15 "Hg12 mi
5:00 AM55 °FOvercast.2 mph87%30.16 "Hg12 mi
4:00 AM57 °FOvercast.1 mph85%30.15 "Hg12 mi
3:00 AM56 °FOvercast.1 mph83%30.16 "Hg16 mi
Weather by CustomWeather, © 2014

See weather overviewHow to use our weather pages